SCP
0 0 0 0 0 0 0 0 0 0 0 0 0 0 0 0 0 0 0 0 0 0 0 0 0 0 0 0 0 0 0 0 0 0 0 0 0 0 0 0 0 -0 0 0 0 0 -0
0 0 0 0 0 0 0 0 0 0 0 0 0 0 0 0 0 0 0 0 0 0 0 0 0 0 0 0 0 0 0 0 0 0 0 0 0 0 0 0 0 0 0 0 0 0 0
0 0 0 0 0 0 0 0 0 0 0 0 0 0 0 0 0 0 0 0 0 0 0 0 0 0 0 0 0 0 0 0 0 0 0 0 0 0 0 0 0 0 0 0 0 0 0
0 0 0 0 0 0 0 0 0 0 0 0 0 0 0 0 0 0 0 0 0 0 0 -0 0 0 0 0 0 0 0 0 0 0 0 0 0 0 0 0 0 0 0 0 0 0 0
0 0 0 0 0 0 0 0 0 0 0 0 0 0 0 0 0 0 0 0 0 0 0 0 0 0 0 0 0 0 0 0 0 0 0 0 0 0 0 0 0 0 0 0 0 0 0
0 0 0 0 0 0 0 0 0 0 0 0 0 0 0 0 0 0 0 0 0 0 0 0 0 0 0 0 0 0 -0 0 0 0 0 0 0 0 0 0 0 0 0 0 0 0 0
0 0 0 0 0 0 0 0 0 -0 0 0 0 0 0 0 0 0 0 0 0 0 0 0 0 0 0 0 0 0 0 0 0 0 0 0 0 0 0 0 0 0 0 0 0 0 0
0 0 0 0 0 0 0 0 0 0 -0 0 0 0 0 0 0 0 0 0 0 0 0 0 0 0 0 0 0 0 0 0 0 0 0 0 0 0 0 0 0 0 0 0 0 0 0
0 0 0 0 0 0 0 0 0 0 0 0 0 0 0 0 0 0 0 0 0 0 0 0 0 0 0 0 0 0 0 0 0 0 0 0 0 0 0 0 0 0 -0 0 0 0 0
0 0 0 0 0 0 0 0 0 0 0 0 0 -0 0 0 0 0 0 0 0 0 0 0 0 0 0 0 0 0 -0 0 0 0 0 0 0 0 0 0 0 0 0 0 0 0 0
0 0 0 0 0 0 0 0 0 0 0 0 0 -0 0 0 0 0 0 0 0 0 0 0 0 0 0 0 0 0 0 0 0 0 0 0 0 0 0 0 0 0 0 0 0 0 0
0 0 0 0 0 0 0 0 0 0 0 0 0 0 0 0 0 0 0 0 0 0 0 0 0 0 0 0 0 0 0 0 0 0 0 0 0 0 0 0 0 0 0 0 0 0 0
0 0 0 0 0 0 0 0 0 0 0 0 0 0 0 0 -0 0 0 0 0 0 0 0 0 0 0 0 0 0 0 0 0 0 0 0 0 0 0 0 0 0 0 0 0 0 0
0 0 0 0 0 0 0 0 0 0 0 0 -0 0 0 0 0 -0 0 0 0 0 0 0 0 0 0 0 0 0 0 0 0 0 0 0 0 0 0 0 0 0 0 0 0 0 0
0 0 0 0 0 -0 0 0 0 0 0 -0 0 0 0 0 0 -0 0 0 0 0 0 0 0 0 0 0 0 0 0 0 0 0 0 0 0 0 0 0 0 0 0 0 0 0 0
0 0 0 0 -0 -0 0 0 0 -0 -0 -0 0 0 0 0 0 -0 0 0 0 0 0 0 0 0 0 0 0 0 0 0 0 0 0 0 0 0 0 0 0 0 0 0 0 0 0
0 0 -0 -0 -0 0 0 0 0 -0 -0 0 0 0 0 0 -0 -0 -0 0 0 0 0 0 0 0 0 0 0 0 0 0 0 0 0 0 0 0 0 0 0 0 0 0 0 0 0
0 0 -0 -0 -0 0 0 0 0 -0 -0 0 0 0 0 0 -0 0 0 0 0 0 0 0 0 0 0 0 0 0 0 0 0 0 0 0 0 0 0 0 0 0 0 0 0 0 0
0 -0 -0 -0 -0 0 0 0 0 -0 0 0 -0 0 0 0 0 0 0 0 0 0 0 0 0 0 0 0 0 0 0 0 0 0 0 0 0 0 0 0 0 0 0 0 0 0 0
0 -0 -0 -0 -0 0 0 0 0 -0 -0 0 0 0 0 0 0 -0 0 -0 -0 -0 0 0 0 0 0 0 0 0 0 0 0 0 0 0 0 0 0 0 0 0 0 0 0 0 0
-0 -0 -0 -0 -0 0 0 0 0 -0 -0 0 0 0 0 0 0 -0 -0 -0 -0 -0 0 0 0 0 0 0 0 0 0 0 0 0 0 0 0 0 0 0 0 0 0 0 0 0 0
-0 0 -0 -0 -0 0 0 0 0 -0 0 0 0 -0 -0 -0 -0 0 0 0 0 0 -0 0 0 0 0 0 0 0 0 0 0 0 0 0 0 0 0 0 0 0 0 0 0 0 0
0 0 0 0 -0 0 0 0 0 0 0 0 0 0 0 -0 -0 0 -0 -0 -0 0 -0 0 0 0 0 0 0 0 0 0 0 0 0 0 0 0 0 0 0 0 0 0 0 0 0
0 0 0 0 0 -0 0 0 0 0 0 0 0 0 0 0 -0 -0 -0 -0 -0 -0 0 -0 0 0 0 0 0 0 0 0 0 0 0 0 0 0 0 0 0 0 0 0 0 0 0
-0 0 0 0 0 -0 0 0 0 0 -0 0 0 0 0 0 0 0 -0 0 -0 0 0 0 0 0 0 0 0 0 0 0 0 0 0 0 0 0 0 0 0 0 0 0 0 0 0
0 -0 0 0 0 0 0 0 0 0 0 0 0 0 0 0 0 0 0 0 0 0 0 0 0 0 0 0 0 0 0 0 0 0 0 0 0 0 0 0 0 0 0 0 0 0 0
-0 -0 0 0 0 0 0 0 -0 0 0 0 0 0 0 0 0 0 0 0 0 0 0 0 0 -0 0 0 0 0 0 0 0 0 0 0 0 0 0 0 0 0 0 0 0 0 0
0 -0 0 0 0 -0 -0 -0 -0 0 -0 0 0 0 0 0 0 0 0 0 0 0 0 0 -0 -0 -0 -0 -0 0 0 0 0 0 0 0 0 0 0 0 0 0 0 0 0 0 0
0 0 0 0 0 -0 -0 -0 -0 0 0 0 0 0 0 0 0 0 0 0 0 0 0 0 0 0 0 0 0 0 0 0 -0 0 0 -0 -0 0 0 0 0 0 0 0 0 0 0
Wind_Speed_500mb
46 47 49 46 45 42 43 43 43 46 46 47 46 43 44 43 41 40 38 34 29 26 29 23 20 15 9 7 10 8 9 26 41 41 42 40 42 17 10 10 13 11 19 16 26 35 41
43 49 50 43 43 43 44 44 46 47 48 47 48 48 45 44 43 41 37 33 29 24 22 15 16 13 7 7 12 13 8 8 27 41 44 44 36 39 14 8 8 10 16 29 39 37 34
49 56 51 38 39 41 42 44 46 48 49 50 49 49 49 46 43 42 37 30 27 21 17 12 11 10 14 12 13 16 6 5 5 17 45 49 22 28 5 7 11 31 19 16 7 33 16
54 58 44 38 42 42 42 42 43 46 48 49 50 50 50 47 44 40 36 28 21 18 15 6 6 4 12 11 19 20 17 13 9 6 21 36 40 11 7 11 11 5 8 7 5 22 21
50 51 41 39 42 41 42 43 46 48 48 48 49 48 46 45 42 37 29 23 17 14 8 6 7 7 8 15 17 11 23 17 14 16 16 17 32 13 5 2 8 12 2 3 5 30 14
51 46 40 39 39 41 44 46 49 50 48 46 45 46 45 41 39 31 16 18 5 8 9 8 12 5 3 6 17 17 18 15 14 25 17 15 17 8 5 7 9 4 2 3 4 7 9
46 40 39 40 42 45 48 49 48 47 46 44 45 47 47 41 32 20 5 6 3 3 12 14 5 8 12 16 13 14 19 23 19 21 9 14 8 11 14 14 11 5 6 6 8 12 4
43 42 42 44 47 49 50 49 47 46 45 47 47 46 44 38 19 1 8 7 14 8 16 24 25 30 28 16 9 16 20 15 12 10 8 10 7 15 6 12 9 6 5 7 12 12 6
42 44 47 49 50 50 49 47 47 48 48 48 47 44 39 22 7 7 11 27 25 7 3 14 17 19 15 10 9 9 21 10 9 10 8 10 9 9 7 2 2 5 10 7 12 12 9
47 51 52 51 51 50 48 48 49 49 49 48 43 40 30 11 10 11 17 22 14 2 8 10 7 8 12 9 1 14 16 7 4 16 12 8 7 13 9 9 12 8 15 13 8 5 1
51 52 52 51 51 52 52 52 52 51 49 46 38 33 18 4 7 15 17 9 10 2 7 1 4 14 24 8 12 9 10 6 9 6 12 12 3 9 9 16 15 18 11 11 9 7 7
53 55 54 54 54 55 58 58 55 52 48 41 30 23 10 8 10 12 16 9 5 9 5 4 6 5 10 5 3 11 5 7 6 8 4 8 4 6 12 9 18 12 3 11 9 8 3
57 60 57 56 58 58 60 58 53 49 45 31 16 15 11 6 6 14 16 2 9 7 12 15 6 4 6 5 1 3 4 12 6 8 7 10 7 9 13 4 9 13 12 4 5 3 9
57 59 57 59 59 61 58 53 50 46 37 17 15 20 18 13 9 13 11 10 16 10 9 9 8 11 10 7 13 15 10 13 17 12 8 5 6 11 16 4 1 4 13 11 11 7 6
53 57 59 59 59 57 54 50 44 44 28 14 11 12 23 20 15 18 3 11 3 7 10 13 5 13 15 11 10 10 14 14 10 12 10 5 5 10 10 13 4 7 8 3 14 7 7
56 59 59 59 58 53 50 48 42 41 19 11 6 14 38 17 15 22 12 9 6 16 12 10 10 14 11 17 10 9 12 12 13 22 0 2 4 3 10 9 18 12 3 5 8 8 7
56 59 58 55 53 49 48 46 43 40 19 13 13 7 43 10 15 18 8 6 7 28 18 13 9 9 7 8 9 8 14 6 15 11 25 6 7 9 5 11 8 12 10 10 8 7 9
54 57 56 54 49 46 45 44 47 39 26 15 25 8 41 8 12 7 7 8 12 26 29 14 10 11 8 14 14 10 11 15 38 9 8 10 8 5 6 14 15 31 9 8 8 8 3
48 53 51 48 44 43 41 41 42 38 32 14 10 22 41 8 8 6 10 12 24 20 14 10 17 13 11 10 10 9 9 22 42 11 5 6 8 6 10 12 16 14 12 9 8 5 4
46 49 48 45 40 40 41 42 39 33 25 12 7 7 22 44 19 11 7 11 7 28 21 21 9 13 11 15 15 8 7 15 26 29 26 13 8 9 10 7 5 4 7 9 10 7 5
45 49 47 42 36 37 39 44 47 27 21 13 12 5 6 6 17 12 10 7 7 9 10 17 10 11 5 8 6 7 8 11 11 29 15 9 7 4 7 11 5 8 4 5 7 7 7
41 43 42 37 31 32 37 43 40 26 24 30 9 9 14 10 4 14 11 8 8 6 7 6 10 11 12 8 6 2 3 4 2 14 9 10 4 4 6 9 6 2 6 12 14 14 11
37 36 35 30 24 26 32 39 37 27 18 18 20 18 9 16 7 7 3 4 3 3 15 7 8 6 7 6 8 14 13 9 5 4 5 5 7 5 6 12 15 10 8 7 2 2 9
35 35 31 26 21 18 24 32 36 32 30 29 26 15 11 4 5 1 3 6 7 6 7 4 14 6 9 20 13 6 9 5 7 10 9 6 6 4 4 8 4 8 10 7 18 15 15
34 33 28 24 20 11 16 23 28 28 29 21 21 15 7 3 1 4 13 6 10 11 8 6 7 8 20 9 8 9 10 11 10 10 13 5 9 5 7 5 10 4 11 10 10 4 8
30 28 27 23 17 10 7 12 19 20 20 16 13 13 8 9 5 7 6 7 4 4 9 3 4 5 12 9 8 4 2 3 6 11 13 10 11 8 6 7 7 2 12 28 14 7 25
27 23 24 20 17 11 3 3 10 16 13 17 11 7 6 6 3 5 5 3 1 4 2 6 4 4 9 5 6 4 2 1 3 4 7 7 7 4 2 6 8 6 31 18 11 4 25
23 18 21 19 17 12 8 7 4 8 11 12 12 12 5 4 7 6 5 5 5 6 7 4 5 8 8 8 6 4 4 5 4 5 1 1 6 4 2 6 11 16 9 3 10 26 31
19 15 17 17 16 15 11 9 10 8 8 11 10 15 18 8 7 15 19 16 8 3 13 8 7 6 7 7 2 5 4 5 6 4 4 7 11 8 12 9 7 12 15 30 29 29 37
Wind_Direction_500mb
354 353 350 344 338 333 332 329 332 335 336 335 333 331 328 326 323 320 319 319 315 313 316 310 299 295 312 284 250 170 116 158 176 180 182 178 175 168 178 202 222 249 274 266 263 184 166
345 345 342 340 343 339 337 333 330 331 332 332 329 327 325 323 320 316 313 315 310 308 317 309 301 274 267 264 144 144 118 145 192 191 185 187 188 181 198 235 195 234 279 270 278 241 154
350 346 343 342 342 338 336 335 333 333 332 331 329 325 323 321 318 313 310 310 301 299 306 301 294 266 241 238 170 184 180 45 130 205 195 191 185 190 181 280 297 258 272 287 152 135 147
349 344 347 347 345 343 340 338 336 334 335 333 328 326 325 322 318 313 309 307 293 288 291 268 282 221 251 147 181 207 216 224 218 193 199 198 178 215 247 311 326 291 61 48 133 149 159
348 345 347 352 350 348 344 341 339 337 335 333 328 326 329 326 317 313 313 304 290 277 251 217 230 277 253 194 218 229 210 223 214 211 161 158 184 209 225 147 14 360 191 135 45 199 147
349 349 352 357 351 348 345 342 339 338 337 336 333 330 331 329 319 313 329 317 280 237 191 224 229 304 177 193 188 177 183 202 219 190 187 176 181 131 48 89 194 169 44 330 120 158 135
353 2 1 357 352 348 345 343 343 343 341 340 336 332 333 330 323 310 42 149 59 77 249 231 150 271 290 13 202 209 175 171 171 159 141 187 113 187 201 186 183 159 156 274 282 235 247
10 8 2 356 351 348 346 345 346 345 342 338 335 332 334 335 325 150 56 75 37 7 296 277 251 260 267 282 311 194 184 164 152 178 134 48 189 212 214 167 182 194 240 278 294 280 152
8 3 358 354 351 349 347 346 345 342 339 337 334 331 336 358 75 105 43 9 8 306 243 291 233 226 239 222 218 188 184 167 125 152 145 141 214 172 169 265 210 231 227 188 214 341 44
4 0 357 354 351 351 348 344 341 338 336 336 335 331 342 78 89 59 24 358 4 249 62 283 230 196 176 207 181 187 177 143 69 179 150 190 253 190 203 227 147 256 214 223 240 99 250
1 359 357 355 353 350 345 342 340 338 337 337 335 329 350 79 79 34 355 312 316 281 75 88 184 148 159 140 133 79 142 153 138 125 99 237 230 171 197 221 166 229 190 208 196 155 105
358 358 357 354 352 348 344 342 343 341 341 343 333 337 14 119 77 356 324 287 271 36 82 58 125 137 98 113 52 142 92 95 109 98 350 223 262 154 206 231 179 235 140 53 57 120 83
359 357 355 353 351 349 344 345 347 347 349 347 0 20 45 91 6 327 330 327 44 66 327 347 336 85 77 116 96 105 82 28 62 98 21 348 25 345 37 76 28 70 75 353 13 35 196
357 355 354 352 351 349 348 351 353 356 5 15 80 56 50 52 357 350 354 60 63 348 328 335 330 71 54 16 18 17 58 23 11 38 76 106 37 10 320 83 240 306 146 153 185 178 220
355 354 354 353 351 352 352 357 5 6 24 74 67 36 38 19 342 341 329 61 25 321 296 328 344 55 9 348 90 83 69 20 29 357 114 104 115 328 3 44 56 314 43 289 101 26 71
355 355 355 354 353 355 358 2 14 12 21 29 40 33 15 6 358 355 66 86 73 346 342 33 75 24 41 355 46 57 31 317 352 23 318 47 82 351 287 12 25 85 310 59 7 123 152
354 355 355 355 357 359 2 5 12 17 16 33 22 41 5 19 8 44 79 83 51 5 38 50 33 60 67 8 37 54 7 38 349 351 51 17 74 295 33 24 348 11 8 16 110 93 145
354 355 355 358 1 3 7 7 8 13 29 80 42 42 9 30 51 29 36 354 49 1 32 50 70 71 51 28 30 70 68 15 349 349 50 336 121 56 90 329 110 82 78 92 96 326 33
356 356 356 2 5 8 9 8 5 10 17 104 70 39 22 70 89 32 4 50 54 28 15 43 20 40 33 40 86 49 56 353 18 47 43 322 17 41 19 351 11 43 15 55 85 64 66
357 358 359 4 8 10 9 8 2 10 16 41 62 31 32 59 71 105 67 16 43 38 43 56 24 54 43 27 18 69 52 359 20 26 40 84 64 119 171 182 216 359 10 72 97 74 295
358 360 2 4 9 13 15 13 13 19 29 55 49 48 27 358 17 63 70 28 21 15 45 34 30 50 70 53 47 70 15 348 17 12 27 81 98 111 190 220 221 199 158 99 119 177 151
358 2 3 5 8 17 21 21 24 41 62 68 66 48 71 47 8 48 14 351 47 4 54 13 99 91 70 100 142 180 61 55 16 1 44 359 136 46 322 328 329 282 254 218 200 204 223
357 1 4 6 6 17 21 21 27 37 51 66 69 72 95 17 23 66 320 353 15 112 44 118 128 87 75 179 270 282 263 228 227 38 33 70 112 78 293 324 328 49 59 58 151 45 238
354 359 3 5 6 14 22 24 27 37 48 69 74 74 73 350 70 102 45 80 33 7 113 110 58 73 328 315 313 44 67 80 123 42 194 115 85 85 175 10 2 234 3 314 106 70 30
354 356 1 4 7 4 24 25 30 42 49 53 69 83 66 57 352 70 49 53 31 89 98 74 35 29 347 25 57 37 1 21 22 60 32 145 126 119 139 196 286 347 27 6 4 181 52
352 358 356 3 5 1 18 23 31 29 44 32 54 65 73 114 325 144 79 37 72 45 2 51 46 14 358 58 58 95 159 280 328 358 27 65 67 115 156 155 238 242 339 331 304 239 14
351 1 358 1 0 1 322 336 25 23 47 32 33 44 85 99 122 170 131 166 104 100 141 314 357 353 14 48 73 85 85 297 34 18 348 15 8 95 195 227 276 18 323 333 174 301 345
350 2 3 2 359 358 329 271 312 9 45 32 14 16 328 289 222 140 162 193 176 182 147 177 56 4 37 55 106 224 122 217 140 239 112 147 130 189 122 237 272 12 6 0 317 319 327
349 360 7 0 356 356 329 301 269 293 333 14 350 345 341 278 257 239 259 256 247 220 162 151 147 150 147 89 58 128 156 178 176 224 98 186 186 186 183 223 123 9 335 310 287 296 301
Wind_Speed_850mb
46 47 49 46 45 42 43 43 43 46 46 47 46 43 44 43 41 40 38 34 29 26 29 23 20 15 9 7 10 8 9 26 41 41 42 40 42 17 10 10 13 11 19 16 26 35 41
43 49 50 43 43 43 44 44 46 47 48 47 48 48 45 44 43 41 37 33 29 24 22 15 16 13 7 7 12 13 8 8 27 41 44 44 36 39 14 8 8 10 16 29 39 37 34
49 56 51 38 39 41 42 44 46 48 49 50 49 49 49 46 43 42 37 30 27 21 17 12 11 10 14 12 13 16 6 5 5 17 45 49 22 28 5 7 11 31 19 16 7 33 16
54 58 44 38 42 42 42 42 43 46 48 49 50 50 50 47 44 40 36 28 21 18 15 6 6 4 12 11 19 20 17 13 9 6 21 36 40 11 7 11 11 5 8 7 5 22 21
50 51 41 39 42 41 42 43 46 48 48 48 49 48 46 45 42 37 29 23 17 14 8 6 7 7 8 15 17 11 23 17 14 16 16 17 32 13 5 2 8 12 2 3 5 30 14
51 46 40 39 39 41 44 46 49 50 48 46 45 46 45 41 39 31 16 18 5 8 9 8 12 5 3 6 17 17 18 15 14 25 17 15 17 8 5 7 9 4 2 3 4 7 9
46 40 39 40 42 45 48 49 48 47 46 44 45 47 47 41 32 20 5 6 3 3 12 14 5 8 12 16 13 14 19 23 19 21 9 14 8 11 14 14 11 5 6 6 8 12 4
43 42 42 44 47 49 50 49 47 46 45 47 47 46 44 38 19 1 8 7 14 8 16 24 25 30 28 16 9 16 20 15 12 10 8 10 7 15 6 12 9 6 5 7 12 12 6
42 44 47 49 50 50 49 47 47 48 48 48 47 44 39 22 7 7 11 27 25 7 3 14 17 19 15 10 9 9 21 10 9 10 8 10 9 9 7 2 2 5 10 7 12 12 9
47 51 52 51 51 50 48 48 49 49 49 48 43 40 30 11 10 11 17 22 14 2 8 10 7 8 12 9 1 14 16 7 4 16 12 8 7 13 9 9 12 8 15 13 8 5 1
51 52 52 51 51 52 52 52 52 51 49 46 38 33 18 4 7 15 17 9 10 2 7 1 4 14 24 8 12 9 10 6 9 6 12 12 3 9 9 16 15 18 11 11 9 7 7
53 55 54 54 54 55 58 58 55 52 48 41 30 23 10 8 10 12 16 9 5 9 5 4 6 5 10 5 3 11 5 7 6 8 4 8 4 6 12 9 18 12 3 11 9 8 3
57 60 57 56 58 58 60 58 53 49 45 31 16 15 11 6 6 14 16 2 9 7 12 15 6 4 6 5 1 3 4 12 6 8 7 10 7 9 13 4 9 13 12 4 5 3 9
57 59 57 59 59 61 58 53 50 46 37 17 15 20 18 13 9 13 11 10 16 10 9 9 8 11 10 7 13 15 10 13 17 12 8 5 6 11 16 4 1 4 13 11 11 7 6
53 57 59 59 59 57 54 50 44 44 28 14 11 12 23 20 15 18 3 11 3 7 10 13 5 13 15 11 10 10 14 14 10 12 10 5 5 10 10 13 4 7 8 3 14 7 7
56 59 59 59 58 53 50 48 42 41 19 11 6 14 38 17 15 22 12 9 6 16 12 10 10 14 11 17 10 9 12 12 13 22 0 2 4 3 10 9 18 12 3 5 8 8 7
56 59 58 55 53 49 48 46 43 40 19 13 13 7 43 10 15 18 8 6 7 28 18 13 9 9 7 8 9 8 14 6 15 11 25 6 7 9 5 11 8 12 10 10 8 7 9
54 57 56 54 49 46 45 44 47 39 26 15 25 8 41 8 12 7 7 8 12 26 29 14 10 11 8 14 14 10 11 15 38 9 8 10 8 5 6 14 15 31 9 8 8 8 3
48 53 51 48 44 43 41 41 42 38 32 14 10 22 41 8 8 6 10 12 24 20 14 10 17 13 11 10 10 9 9 22 42 11 5 6 8 6 10 12 16 14 12 9 8 5 4
46 49 48 45 40 40 41 42 39 33 25 12 7 7 22 44 19 11 7 11 7 28 21 21 9 13 11 15 15 8 7 15 26 29 26 13 8 9 10 7 5 4 7 9 10 7 5
45 49 47 42 36 37 39 44 47 27 21 13 12 5 6 6 17 12 10 7 7 9 10 17 10 11 5 8 6 7 8 11 11 29 15 9 7 4 7 11 5 8 4 5 7 7 7
41 43 42 37 31 32 37 43 40 26 24 30 9 9 14 10 4 14 11 8 8 6 7 6 10 11 12 8 6 2 3 4 2 14 9 10 4 4 6 9 6 2 6 12 14 14 11
37 36 35 30 24 26 32 39 37 27 18 18 20 18 9 16 7 7 3 4 3 3 15 7 8 6 7 6 8 14 13 9 5 4 5 5 7 5 6 12 15 10 8 7 2 2 9
35 35 31 26 21 18 24 32 36 32 30 29 26 15 11 4 5 1 3 6 7 6 7 4 14 6 9 20 13 6 9 5 7 10 9 6 6 4 4 8 4 8 10 7 18 15 15
34 33 28 24 20 11 16 23 28 28 29 21 21 15 7 3 1 4 13 6 10 11 8 6 7 8 20 9 8 9 10 11 10 10 13 5 9 5 7 5 10 4 11 10 10 4 8
30 28 27 23 17 10 7 12 19 20 20 16 13 13 8 9 5 7 6 7 4 4 9 3 4 5 12 9 8 4 2 3 6 11 13 10 11 8 6 7 7 2 12 28 14 7 25
27 23 24 20 17 11 3 3 10 16 13 17 11 7 6 6 3 5 5 3 1 4 2 6 4 4 9 5 6 4 2 1 3 4 7 7 7 4 2 6 8 6 31 18 11 4 25
23 18 21 19 17 12 8 7 4 8 11 12 12 12 5 4 7 6 5 5 5 6 7 4 5 8 8 8 6 4 4 5 4 5 1 1 6 4 2 6 11 16 9 3 10 26 31
19 15 17 17 16 15 11 9 10 8 8 11 10 15 18 8 7 15 19 16 8 3 13 8 7 6 7 7 2 5 4 5 6 4 4 7 11 8 12 9 7 12 15 30 29 29 37
Wind_Direction_850mb
354 353 350 344 338 333 332 329 332 335 336 335 333 331 328 326 323 320 319 319 315 313 316 310 299 295 312 284 250 170 116 158 176 180 182 178 175 168 178 202 222 249 274 266 263 184 166
345 345 342 340 343 339 337 333 330 331 332 332 329 327 325 323 320 316 313 315 310 308 317 309 301 274 267 264 144 144 118 145 192 191 185 187 188 181 198 235 195 234 279 270 278 241 154
350 346 343 342 342 338 336 335 333 333 332 331 329 325 323 321 318 313 310 310 301 299 306 301 294 266 241 238 170 184 180 45 130 205 195 191 185 190 181 280 297 258 272 287 152 135 147
349 344 347 347 345 343 340 338 336 334 335 333 328 326 325 322 318 313 309 307 293 288 291 268 282 221 251 147 181 207 216 224 218 193 199 198 178 215 247 311 326 291 61 48 133 149 159
348 345 347 352 350 348 344 341 339 337 335 333 328 326 329 326 317 313 313 304 290 277 251 217 230 277 253 194 218 229 210 223 214 211 161 158 184 209 225 147 14 360 191 135 45 199 147
349 349 352 357 351 348 345 342 339 338 337 336 333 330 331 329 319 313 329 317 280 237 191 224 229 304 177 193 188 177 183 202 219 190 187 176 181 131 48 89 194 169 44 330 120 158 135
353 2 1 357 352 348 345 343 343 343 341 340 336 332 333 330 323 310 42 149 59 77 249 231 150 271 290 13 202 209 175 171 171 159 141 187 113 187 201 186 183 159 156 274 282 235 247
10 8 2 356 351 348 346 345 346 345 342 338 335 332 334 335 325 150 56 75 37 7 296 277 251 260 267 282 311 194 184 164 152 178 134 48 189 212 214 167 182 194 240 278 294 280 152
8 3 358 354 351 349 347 346 345 342 339 337 334 331 336 358 75 105 43 9 8 306 243 291 233 226 239 222 218 188 184 167 125 152 145 141 214 172 169 265 210 231 227 188 214 341 44
4 0 357 354 351 351 348 344 341 338 336 336 335 331 342 78 89 59 24 358 4 249 62 283 230 196 176 207 181 187 177 143 69 179 150 190 253 190 203 227 147 256 214 223 240 99 250
1 359 357 355 353 350 345 342 340 338 337 337 335 329 350 79 79 34 355 312 316 281 75 88 184 148 159 140 133 79 142 153 138 125 99 237 230 171 197 221 166 229 190 208 196 155 105
358 358 357 354 352 348 344 342 343 341 341 343 333 337 14 119 77 356 324 287 271 36 82 58 125 137 98 113 52 142 92 95 109 98 350 223 262 154 206 231 179 235 140 53 57 120 83
359 357 355 353 351 349 344 345 347 347 349 347 0 20 45 91 6 327 330 327 44 66 327 347 336 85 77 116 96 105 82 28 62 98 21 348 25 345 37 76 28 70 75 353 13 35 196
357 355 354 352 351 349 348 351 353 356 5 15 80 56 50 52 357 350 354 60 63 348 328 335 330 71 54 16 18 17 58 23 11 38 76 106 37 10 320 83 240 306 146 153 185 178 220
355 354 354 353 351 352 352 357 5 6 24 74 67 36 38 19 342 341 329 61 25 321 296 328 344 55 9 348 90 83 69 20 29 357 114 104 115 328 3 44 56 314 43 289 101 26 71
355 355 355 354 353 355 358 2 14 12 21 29 40 33 15 6 358 355 66 86 73 346 342 33 75 24 41 355 46 57 31 317 352 23 318 47 82 351 287 12 25 85 310 59 7 123 152
354 355 355 355 357 359 2 5 12 17 16 33 22 41 5 19 8 44 79 83 51 5 38 50 33 60 67 8 37 54 7 38 349 351 51 17 74 295 33 24 348 11 8 16 110 93 145
354 355 355 358 1 3 7 7 8 13 29 80 42 42 9 30 51 29 36 354 49 1 32 50 70 71 51 28 30 70 68 15 349 349 50 336 121 56 90 329 110 82 78 92 96 326 33
356 356 356 2 5 8 9 8 5 10 17 104 70 39 22 70 89 32 4 50 54 28 15 43 20 40 33 40 86 49 56 353 18 47 43 322 17 41 19 351 11 43 15 55 85 64 66
357 358 359 4 8 10 9 8 2 10 16 41 62 31 32 59 71 105 67 16 43 38 43 56 24 54 43 27 18 69 52 359 20 26 40 84 64 119 171 182 216 359 10 72 97 74 295
358 360 2 4 9 13 15 13 13 19 29 55 49 48 27 358 17 63 70 28 21 15 45 34 30 50 70 53 47 70 15 348 17 12 27 81 98 111 190 220 221 199 158 99 119 177 151
358 2 3 5 8 17 21 21 24 41 62 68 66 48 71 47 8 48 14 351 47 4 54 13 99 91 70 100 142 180 61 55 16 1 44 359 136 46 322 328 329 282 254 218 200 204 223
357 1 4 6 6 17 21 21 27 37 51 66 69 72 95 17 23 66 320 353 15 112 44 118 128 87 75 179 270 282 263 228 227 38 33 70 112 78 293 324 328 49 59 58 151 45 238
354 359 3 5 6 14 22 24 27 37 48 69 74 74 73 350 70 102 45 80 33 7 113 110 58 73 328 315 313 44 67 80 123 42 194 115 85 85 175 10 2 234 3 314 106 70 30
354 356 1 4 7 4 24 25 30 42 49 53 69 83 66 57 352 70 49 53 31 89 98 74 35 29 347 25 57 37 1 21 22 60 32 145 126 119 139 196 286 347 27 6 4 181 52
352 358 356 3 5 1 18 23 31 29 44 32 54 65 73 114 325 144 79 37 72 45 2 51 46 14 358 58 58 95 159 280 328 358 27 65 67 115 156 155 238 242 339 331 304 239 14
351 1 358 1 0 1 322 336 25 23 47 32 33 44 85 99 122 170 131 166 104 100 141 314 357 353 14 48 73 85 85 297 34 18 348 15 8 95 195 227 276 18 323 333 174 301 345
350 2 3 2 359 358 329 271 312 9 45 32 14 16 328 289 222 140 162 193 176 182 147 177 56 4 37 55 106 224 122 217 140 239 112 147 130 189 122 237 272 12 6 0 317 319 327
349 360 7 0 356 356 329 301 269 293 333 14 350 345 341 278 257 239 259 256 247 220 162 151 147 150 147 89 58 128 156 178 176 224 98 186 186 186 183 223 123 9 335 310 287 296 301